Minot, ND

1:02 PM CDT on March 27, 2017 (GMT -0500)
Minot International

Weather History for KMOT - March, 2014

Change the Weather History Date:

Saturday, March 29, 2014

  Actual Average Record
Temperature  
Mean Temperature 41 °F 35 °F  
Max Temperature 61 °F 45 °F 70 °F (1966)
Min Temperature 21 °F 25 °F -15 °F (1964)
Degree Days  
Heating Degree Days 24 30  
Month to date heating degree days 1202 1076  
Since 1 July heating degree days 8435 7652  
Cooling Degree Days 0 0  
Month to date cooling degree days 0 0  
Year to date cooling degree days 0 0  
Moisture  
Dew Point 26 °F    
Average Humidity 57    
Maximum Humidity 85    
Minimum Humidity 29    
Precipitation  
Precipitation 0.00 in 0.03 in 0.26 in (1989)
Month to date precipitation 0.05 0.76  
Year to date precipitation 0.41 1.67  
Sea Level Pressure  
Sea Level Pressure 29.82 in    
Wind  
Wind Speed 10 mph (South)    
Max Wind Speed 24 mph    
Max Gust Speed 33 mph    
Visibility 10 miles    
Events      
T = Trace of Precipitation, MM = Missing Value Source: NWS Daily Summary

Daily Weather History Graph

Daily Weather History Graph

Search for Another Location

Airport or City:

Trip Planner

Search our weather history database for the weather conditions in past years. The results will help you decide how hot, cold, wet, or windy it might be!

Date:

Astronomy

Mar. 29, 2014 Rise Set
Actual Time 7:29 AM CDT 8:11 PM CDT
Civil Twilight 6:57 AM CDT 8:42 PM CDT
Nautical Twilight 6:20 AM CDT 9:20 PM CDT
Astronomical Twilight 5:41 AM CDT 9:59 PM CDT
Moon 6:44 AM CDT (3/29) 7:16 PM CDT (3/29)
Length of Visible Light 13h 44m
Length of Day
12h 41m
Waning Crescent, 2% of the Moon is Illuminated
Mar 29
Waning Crescent
Mar 30
New
Apr 7
First Quarter
Apr 15
Full
Apr 22
Last Quarter

Hourly Weather History & Observations

Time (CDT) Temp. Windchill Dew Point Humidity Pressure Visibility Wind Dir Wind Speed Gust Speed Precip Events Conditions
12:54 AM 27.0 °F - 21.9 °F 81% 30.10 in 10.0 mi Calm Calm - N/A   Overcast
1:54 AM 24.1 °F - 19.0 °F 81% 30.09 in 10.0 mi Calm Calm - N/A   Clear
2:54 AM 24.1 °F 19.7 °F 19.0 °F 81% 30.07 in 10.0 mi SW 3.5 mph - N/A   Clear
3:54 AM 21.0 °F 13.4 °F 17.1 °F 85% 30.06 in 10.0 mi South 5.8 mph - N/A   Clear
4:54 AM 21.9 °F 15.7 °F 18.0 °F 85% 30.04 in 10.0 mi SE 4.6 mph - N/A   Overcast
5:54 AM 24.1 °F 16.0 °F 19.9 °F 84% 30.00 in 10.0 mi ESE 6.9 mph - N/A   Overcast
6:54 AM 27.0 °F 18.7 °F 23.0 °F 85% 29.96 in 10.0 mi ESE 8.1 mph - N/A   Overcast
7:54 AM 28.0 °F 20.0 °F 23.0 °F 81% 29.93 in 10.0 mi SE 8.1 mph - N/A   Overcast
8:54 AM 28.9 °F 19.8 °F 24.1 °F 82% 29.89 in 10.0 mi SSE 10.4 mph - N/A   Overcast
9:54 AM 30.9 °F 21.7 °F 24.1 °F 76% 29.86 in 10.0 mi SE 11.5 mph - N/A   Overcast
10:54 AM 37.0 °F 28.9 °F 27.0 °F 67% 29.82 in 10.0 mi SSE 12.7 mph - N/A   Mostly Cloudy
11:54 AM 44.1 °F - 27.0 °F 51% 29.77 in 10.0 mi North - - N/A   Scattered Clouds
12:54 PM 46.9 °F - 27.0 °F 46% 29.74 in 10.0 mi South 19.6 mph 31.1 mph N/A   Mostly Cloudy
1:54 PM 54.0 °F - 28.0 °F 37% 29.71 in 10.0 mi South 13.8 mph 26.5 mph N/A   Clear
2:54 PM 57.0 °F - 28.0 °F 33% 29.67 in 10.0 mi SSW 13.8 mph 26.5 mph N/A   Partly Cloudy
3:54 PM 60.1 °F - 28.9 °F 31% 29.65 in 10.0 mi SSW 19.6 mph 26.5 mph N/A   Scattered Clouds
4:54 PM 59.0 °F - 30.0 °F 33% 29.65 in 10.0 mi SW 13.8 mph - N/A   Overcast
5:54 PM 57.9 °F - 30.0 °F 35% 29.65 in 10.0 mi SW 9.2 mph - N/A   Mostly Cloudy
6:54 PM 55.9 °F - 32.0 °F 40% 29.64 in 10.0 mi West 10.4 mph - N/A   Mostly Cloudy
7:54 PM 52.0 °F - 32.0 °F 47% 29.66 in 10.0 mi SW 5.8 mph - N/A   Clear
8:54 PM 48.9 °F - 33.1 °F 54% 29.66 in 10.0 mi SSW 8.1 mph - N/A   Clear
9:54 PM 48.0 °F - 33.1 °F 56% 29.68 in 10.0 mi SSW 9.2 mph - N/A   Mostly Cloudy
10:54 PM 46.9 °F - 33.1 °F 59% 29.67 in 10.0 mi SSW 9.2 mph - N/A   Scattered Clouds
11:54 PM 46.9 °F - 34.0 °F 61% 29.68 in 10.0 mi SW 12.7 mph - N/A   Clear